"startDT [UTC]","vpos","CH4 [ppm]","stdev(CH4) [ppm]","CO2 [ppm]","stdev(CO2) [ppm]","H2O_reported [%]","stdev(H2O_reported)","CavityPressure [torr]","CavityTemp [C]","OutletValve","CH4_dry [ppm]","CO2_dry [ppm]","DasTemp [C]","EtalonTemp [C]","WarmBoxTemp [C]","MPVPosition","T_ECpre [C]","T_EC1 [C]","T_EC2 [C]","p_inlet [hPa]","p_in [hPa]","p_out [hPa]","T_inlet [C]","RH_inlet [%]","dwpt_inlet [C]","T_vent [C]","RH_vent [%]","dwpt_vent [C]","flow_vent [l min-1]","flow_inlet [l min-1]","dwpt_sample [C]","T_room [C]"
2016-06-21 00:00:00,3.0,1.87607,0.00657,397.935,0.697,0.1487,0.2427,139.987,45.000,31461.97267,1.87986,398.786,36.813,45.069,45.000,0.00,0.09,-272.77,-272.84,-10,476,-941,21.8,22.3,-0.7,22.1,22.4,-0.4,5.73,1.70,-1.7,27.6
2016-06-21 00:01:00,3.0,1.87554,0.00043,397.165,0.074,0.0271,0.0015,139.996,45.001,31439.53732,1.87603,397.292,36.830,45.070,45.001,0.00,0.09,-272.78,-272.84,-11,475,-942,21.9,22.9,-0.3,22.1,22.8,-0.1,5.73,1.90,-1.7,27.7
2016-06-21 00:02:00,3.0,1.87541,0.00038,397.402,0.064,0.0248,0.0016,139.998,45.001,31433.45761,1.87585,397.516,36.868,45.070,45.001,0.00,0.09,-272.78,-272.85,-10,475,-942,21.9,22.7,-0.4,22.1,22.6,-0.2,5.73,1.70,-1.7,27.7
2016-06-21 00:03:00,3.0,1.87569,0.00027,397.511,0.033,0.0220,0.0017,139.996,45.001,31430.34295,1.87611,397.616,36.923,45.071,45.001,0.00,0.09,-272.78,-272.84,-11,475,-942,21.9,22.5,-0.5,22.1,22.7,-0.2,5.73,1.96,-1.7,27.8
2016-06-21 00:04:00,3.0,1.87584,0.00038,397.554,0.029,0.0164,0.0021,139.999,45.001,31445.41700,1.87610,397.633,36.977,45.071,45.002,0.00,0.09,-272.79,-272.84,-10,477,-942,22.0,22.6,-0.4,22.2,22.5,-0.2,5.73,1.65,-1.7,27.8
2016-06-21 00:05:00,3.0,1.87584,0.00038,397.560,0.027,0.0127,0.0025,140.002,45.001,31465.21208,1.87612,397.621,37.001,45.071,45.001,0.00,0.09,-272.79,-272.85,-11,479,-942,22.0,22.6,-0.3,22.2,22.6,-0.1,5.73,1.98,-1.7,27.9
2016-06-21 00:06:00,3.0,1.87567,0.00033,397.548,0.032,0.0110,0.0028,139.997,45.001,31464.94804,1.87585,397.601,37.000,45.071,45.001,0.00,0.09,-272.78,-272.84,-11,479,-942,22.0,22.4,-0.4,22.2,22.4,-0.2,5.73,1.66,-1.7,28.0
2016-06-21 00:07:00,3.0,1.87599,0.00034,397.568,0.030,0.0096,0.0021,139.999,45.001,31461.53573,1.87616,397.613,37.000,45.071,45.001,0.00,0.09,-272.77,-272.84,-11,479,-942,22.0,23.0,-0.1,22.3,22.9,0.1,5.73,1.96,-1.7,27.9
2016-06-21 00:08:00,3.0,1.87587,0.00034,397.574,0.029,0.0071,0.0024,139.999,45.000,31459.18263,1.87601,397.608,36.996,45.070,45.000,0.00,0.09,-272.78,-272.84,-11,479,-942,22.0,22.4,-0.5,22.2,22.6,-0.1,5.73,1.66,-1.7,28.0
2016-06-21 00:09:00,3.0,1.87575,0.00033,397.583,0.036,0.0059,0.0021,139.999,44.999,31456.58985,1.87588,397.612,36.945,45.069,44.999,0.00,0.09,-272.79,-272.84,-10,480,-942,22.1,22.0,-0.6,22.2,22.2,-0.4,5.73,1.98,-1.7,27.9
2016-06-21 00:10:00,3.0,1.87600,0.00037,397.592,0.038,0.0044,0.0021,139.998,44.999,31452.96735,1.87606,397.614,36.887,45.068,44.999,0.00,0.09,-272.78,-272.84,-12,480,-941,22.1,21.8,-0.7,22.3,22.0,-0.5,5.73,1.64,-1.7,27.9
2016-06-21 00:11:00,3.0,1.87621,0.00040,397.600,0.033,0.0047,0.0016,139.997,44.999,31449.38385,1.87629,397.621,36.876,45.068,44.999,0.00,0.09,-272.78,-272.84,-10,480,-941,22.2,21.9,-0.7,22.3,22.0,-0.5,5.73,1.98,-1.7,28.0
2016-06-21 00:12:00,3.0,1.87609,0.00039,397.603,0.033,0.0040,0.0019,139.998,44.999,31448.25759,1.87618,397.623,36.870,45.069,44.999,0.00,0.09,-272.78,-272.84,-12,480,-941,22.2,21.8,-0.7,22.3,22.0,-0.4,5.73,1.64,-1.7,28.0
2016-06-21 00:13:00,3.0,1.87611,0.00030,397.623,0.031,0.0041,0.0016,140.000,44.999,31447.19639,1.87618,397.643,36.854,45.069,45.000,0.00,0.09,-272.78,-272.84,-11,480,-941,22.2,21.4,-0.9,22.3,21.7,-0.6,5.73,1.99,-1.7,28.0
2016-06-21 00:14:00,3.0,1.87613,0.00046,397.608,0.037,0.0035,0.0024,139.997,44.999,31443.12817,1.87619,397.623,36.822,45.069,45.000,0.00,0.09,-272.77,-272.83,-11,480,-941,22.3,21.4,-0.9,22.3,21.6,-0.7,5.73,1.64,-1.7,28.0
2016-06-21 00:15:00,3.0,1.87618,0.00036,397.615,0.035,0.0032,0.0017,139.998,44.999,31441.33752,1.87627,397.629,36.810,45.069,45.000,0.00,0.09,-272.79,-272.84,-11,480,-941,22.3,21.3,-0.9,22.3,21.5,-0.7,5.73,1.98,-1.7,28.0
2016-06-21 00:16:00,3.0,1.87615,0.00044,397.618,0.029,0.0025,0.0018,140.000,44.999,31440.65495,1.87616,397.631,36.771,45.069,44.999,0.00,0.09,-272.78,-272.84,-10,480,-941,22.3,21.2,-1.0,22.4,21.4,-0.8,5.73,1.64,-1.6,28.0
2016-06-21 00:17:00,3.0,1.87596,0.00024,397.611,0.033,0.0024,0.0023,139.999,44.999,31439.85736,1.87604,397.621,36.750,45.069,44.999,0.00,0.09,-272.78,-272.84,-12,480,-941,22.3,21.5,-0.7,22.4,21.6,-0.6,5.73,1.99,-1.7,28.0
2016-06-21 00:18:00,3.0,1.87615,0.00035,397.628,0.031,0.0026,0.0019,139.998,45.000,31436.46302,1.87619,397.641,36.750,45.069,45.000,0.00,0.09,-272.78,-272.85,-10,480,-941,22.3,21.8,-0.5,22.4,22.1,-0.4,5.73,1.64,-1.6,28.0
2016-06-21 00:19:00,3.0,1.87624,0.00039,397.613,0.028,0.0025,0.0019,139.999,45.000,31436.27410,1.87628,397.625,36.742,45.069,45.000,0.00,0.09,-272.79,-272.84,-12,480,-941,22.3,21.8,-0.6,22.4,22.1,-0.3,5.73,1.98,-1.6,28.0
2016-06-21 00:20:00,0.0,1.89182,0.00506,399.303,0.615,0.6284,0.2504,140.011,45.000,31642.09436,1.90289,402.270,36.701,45.069,45.000,0.00,0.09,-272.78,-272.84,-12,509,-941,22.4,21.8,-0.5,22.4,22.1,-0.3,5.73,1.67,-1.6,28.0
2016-06-21 00:21:00,0.0,1.89194,0.00039,399.326,0.056,0.7579,0.0078,140.000,45.000,31662.37969,1.90641,403.053,36.691,45.069,45.000,0.00,0.09,-272.79,-272.83,-13,510,-940,22.4,21.9,-0.4,22.5,22.2,-0.2,5.73,1.92,-1.6,28.0
2016-06-21 00:22:00,0.0,1.89188,0.00046,399.335,0.059,0.7599,0.0080,140.001,45.000,31667.84633,1.90637,403.074,36.683,45.069,45.000,0.00,0.09,-272.79,-272.84,-14,510,-940,22.4,21.8,-0.5,22.4,22.2,-0.2,5.73,1.85,-1.6,28.0
2016-06-21 00:23:00,0.0,1.89179,0.00032,399.295,0.037,0.7665,0.0043,139.994,45.000,31669.74102,1.90639,403.065,36.679,45.069,45.000,0.00,0.09,-272.77,-272.84,-12,511,-940,22.4,21.9,-0.4,22.4,22.1,-0.2,5.73,1.73,-1.6,28.0
2016-06-21 00:24:00,0.0,1.89190,0.00035,399.303,0.056,0.7655,0.0040,139.999,45.000,31672.84306,1.90649,403.067,36.644,45.070,45.000,0.00,0.09,-272.78,-272.84,-13,511,-940,22.4,21.8,-0.5,22.5,22.2,-0.2,5.73,1.99,-1.6,28.0
2016-06-21 00:25:00,0.0,1.89173,0.00041,399.301,0.051,0.7703,0.0046,140.001,45.000,31676.05547,1.90643,403.092,36.654,45.070,45.000,0.00,0.09,-272.77,-272.84,-14,511,-940,22.5,21.9,-0.3,22.5,22.2,-0.1,5.73,1.67,-1.6,28.0
2016-06-21 00:26:00,0.0,1.89170,0.00055,399.191,0.061,0.7824,0.0089,139.998,45.000,31676.74118,1.90660,403.039,36.627,45.069,45.000,0.00,0.09,-272.79,-272.84,-12,511,-940,22.4,22.2,-0.2,22.4,22.4,-0.1,5.73,1.92,-1.6,28.0
2016-06-21 00:27:00,0.0,1.89200,0.00040,399.266,0.048,0.7743,0.0053,139.999,45.000,31676.72773,1.90677,403.077,36.616,45.069,44.999,0.00,0.09,-272.77,-272.84,-13,511,-940,22.4,22.0,-0.3,22.5,22.4,-0.0,5.73,1.85,-1.6,28.0
2016-06-21 00:28:00,0.0,1.89153,0.00038,399.168,0.068,0.7830,0.0115,139.997,45.000,31677.61918,1.90650,403.023,36.593,45.069,45.000,0.00,0.09,-272.78,-272.84,-14,511,-940,22.5,22.2,-0.2,22.5,22.6,0.0,5.73,1.72,-1.6,28.0
2016-06-21 00:29:00,0.0,1.89122,0.00049,399.119,0.063,0.7871,0.0079,139.999,45.000,31682.03127,1.90622,402.992,36.579,45.069,45.000,0.00,0.09,-272.79,-272.84,-12,511,-940,22.5,22.3,-0.1,22.5,22.5,0.0,5.73,2.00,-1.6,27.9
2016-06-21 00:30:00,0.0,1.89141,0.00045,399.167,0.029,0.7830,0.0067,139.999,45.000,31681.68247,1.90639,403.021,36.568,45.070,45.000,0.00,0.09,-272.77,-272.84,-13,511,-940,22.5,22.2,-0.2,22.4,22.7,0.1,5.73,1.67,-1.6,27.9
2016-06-21 00:31:00,0.0,1.89107,0.00037,399.098,0.061,0.7923,0.0089,139.999,45.000,31683.40080,1.90615,402.996,36.561,45.069,45.000,0.00,0.09,-272.79,-272.84,-14,512,-940,22.5,22.5,-0.0,22.5,22.6,0.1,5.73,1.91,-1.6,27.9
2016-06-21 00:32:00,0.0,1.89145,0.00032,399.097,0.096,0.7962,0.0164,139.998,45.000,31681.53169,1.90665,403.016,36.549,45.069,44.999,0.00,0.09,-272.78,-272.85,-12,511,-940,22.5,22.5,-0.0,22.5,22.9,0.3,5.73,1.85,-1.6,27.9
2016-06-21 00:33:00,0.0,1.89140,0.00034,399.163,0.056,0.7796,0.0072,140.001,45.000,31684.04211,1.90628,403.000,36.553,45.069,45.000,0.00,0.09,-272.78,-272.84,-13,511,-940,22.5,22.0,-0.3,22.5,22.5,0.0,5.73,1.73,-1.6,27.9
2016-06-21 00:34:00,0.0,1.89151,0.00034,399.140,0.041,0.7844,0.0040,139.999,45.000,31684.23039,1.90648,402.998,36.566,45.069,45.000,0.00,0.09,-272.77,-272.83,-13,512,-940,22.5,22.1,-0.2,22.5,22.5,0.0,5.73,1.98,-1.6,27.9
2016-06-21 00:35:00,0.0,1.89201,0.00050,399.149,0.053,0.7785,0.0088,140.000,45.000,31685.07907,1.90686,402.979,36.588,45.070,45.000,0.00,0.09,-272.78,-272.84,-12,512,-940,22.5,22.0,-0.3,22.5,22.4,-0.0,5.73,1.65,-1.6,27.9
2016-06-21 00:36:00,0.0,1.89165,0.00033,399.146,0.052,0.7700,0.0074,139.999,45.000,31686.46127,1.90633,402.934,36.620,45.070,45.000,0.00,0.09,-272.79,-272.84,-14,511,-940,22.4,21.7,-0.5,22.5,22.1,-0.2,5.73,2.00,-1.6,27.9
2016-06-21 00:37:00,0.0,1.89158,0.00040,399.164,0.044,0.7688,0.0045,140.000,45.000,31686.69738,1.90628,402.946,36.622,45.070,45.000,0.00,0.09,-272.78,-272.84,-13,512,-940,22.4,21.7,-0.5,22.5,22.1,-0.2,5.73,1.72,-1.5,27.9
2016-06-21 00:38:00,0.0,1.89158,0.00053,399.133,0.067,0.7749,0.0093,139.998,45.000,31686.66525,1.90630,402.942,36.605,45.070,45.000,0.00,0.09,-272.78,-272.83,-12,512,-939,22.5,21.9,-0.3,22.5,22.1,-0.2,5.73,1.84,-1.6,27.9
2016-06-21 00:39:00,0.0,1.89213,0.00093,399.057,0.112,0.7972,0.0229,139.998,45.000,31685.41713,1.90739,402.982,36.566,45.069,44.999,0.00,0.09,-272.79,-272.85,-14,512,-939,22.5,22.4,-0.0,22.5,22.8,0.2,5.73,1.93,-1.6,27.9
2016-06-21 00:40:00,0.0,1.89134,0.00046,399.075,0.076,0.7817,0.0111,139.996,45.000,31685.67921,1.90627,402.922,36.562,45.069,44.999,0.00,0.09,-272.78,-272.84,-13,512,-939,22.4,22.1,-0.3,22.5,22.5,0.0,5.73,1.66,-1.5,27.9
2016-06-21 00:41:00,0.0,1.89107,0.00050,399.021,0.073,0.7845,0.0113,139.998,45.000,31686.97323,1.90601,402.882,36.517,45.069,44.999,0.00,0.09,-272.78,-272.83,-12,512,-939,22.4,22.1,-0.3,22.5,22.5,-0.0,5.73,2.00,-1.5,27.9
2016-06-21 00:42:00,0.0,1.89124,0.00049,399.069,0.049,0.7772,0.0075,139.999,44.999,31685.81766,1.90609,402.891,36.500,45.069,45.000,0.00,0.09,-272.78,-272.85,-14,512,-939,22.4,22.0,-0.3,22.4,22.2,-0.2,5.73,1.72,-1.5,27.9
2016-06-21 00:43:00,0.0,1.89106,0.00065,399.032,0.070,0.7827,0.0087,140.002,45.000,31686.81742,1.90597,402.881,36.500,45.069,45.000,0.00,0.09,-272.79,-272.84,-13,512,-939,22.4,22.1,-0.3,22.5,22.5,-0.0,5.73,1.83,-1.5,27.9
2016-06-21 00:44:00,0.0,1.89102,0.00037,399.037,0.079,0.7850,0.0095,140.001,45.000,31684.02399,1.90597,402.898,36.495,45.070,45.000,0.00,0.09,-272.79,-272.84,-12,512,-939,22.4,22.2,-0.2,22.5,22.4,-0.1,5.73,1.95,-1.5,27.8
2016-06-21 00:45:00,0.0,1.89156,0.00046,399.056,0.044,0.7877,0.0027,140.000,44.999,31681.87728,1.90659,402.932,36.445,45.069,45.000,0.00,0.09,-272.78,-272.84,-14,512,-939,22.4,22.3,-0.2,22.5,22.6,0.0,5.73,1.66,-1.5,27.8
2016-06-21 00:46:00,0.0,1.89109,0.00046,398.989,0.040,0.7973,0.0044,139.996,44.999,31681.47062,1.90627,402.910,36.439,45.069,45.000,0.00,0.09,-272.79,-272.84,-13,512,-939,22.4,22.6,-0.0,22.4,22.8,0.1,5.73,1.99,-1.5,27.8
2016-06-21 00:47:00,0.0,1.89159,0.00061,398.930,0.059,0.8110,0.0100,140.000,45.000,31680.35113,1.90711,402.923,36.438,45.070,45.000,0.00,0.09,-272.78,-272.84,-12,512,-939,22.4,23.0,0.2,22.4,23.2,0.4,5.73,1.74,-1.5,27.8
2016-06-21 00:48:00,0.0,1.89156,0.00059,398.865,0.100,0.8161,0.0196,140.000,45.000,31679.50704,1.90717,402.882,36.438,45.070,45.001,0.00,0.09,-272.78,-272.84,-14,512,-939,22.4,23.1,0.3,22.4,23.3,0.5,5.73,1.83,-1.5,27.8
2016-06-21 00:49:00,0.0,1.89122,0.00035,398.893,0.044,0.8088,0.0090,139.998,45.000,31678.36396,1.90665,402.873,36.443,45.071,45.001,0.00,0.09,-272.79,-272.84,-12,512,-939,22.3,22.9,0.2,22.4,23.3,0.4,5.73,1.94,-1.5,27.8
2016-06-21 00:50:00,0.0,1.89085,0.00037,398.864,0.049,0.8066,0.0069,139.997,45.000,31680.61419,1.90624,402.834,36.462,45.071,45.001,0.00,0.09,-272.78,-272.84,-12,512,-939,22.3,22.9,0.1,22.4,23.1,0.3,5.73,1.66,-1.5,27.8
2016-06-21 00:51:00,0.0,1.89083,0.00056,398.782,0.091,0.8213,0.0122,139.999,45.001,31678.68367,1.90650,402.825,36.499,45.071,45.001,0.00,0.09,-272.78,-272.84,-14,512,-939,22.3,23.3,0.4,22.4,23.5,0.5,5.73,2.00,-1.5,27.8
2016-06-21 00:52:00,0.0,1.89089,0.00031,398.878,0.054,0.8104,0.0104,139.999,45.000,31678.53776,1.90637,402.866,36.497,45.070,45.000,0.00,0.09,-272.78,-272.84,-12,512,-939,22.3,23.0,0.2,22.4,23.3,0.4,5.73,1.73,-1.5,27.7
2016-06-21 00:53:00,0.0,1.89130,0.00053,398.834,0.111,0.8141,0.0151,140.000,45.000,31676.87473,1.90682,402.840,36.475,45.069,44.999,0.00,0.09,-272.78,-272.84,-12,512,-939,22.3,23.2,0.3,22.4,23.3,0.4,5.73,1.81,-1.5,27.7
2016-06-21 00:54:00,0.0,1.89121,0.00051,398.815,0.075,0.8235,0.0115,139.999,45.000,31676.68768,1.90697,402.870,36.438,45.069,44.999,0.00,0.09,-272.78,-272.84,-14,512,-939,22.3,23.4,0.4,22.4,23.7,0.7,5.73,1.95,-1.5,27.8
2016-06-21 00:55:00,0.0,1.89097,0.00038,398.920,0.038,0.8031,0.0049,139.997,45.000,31677.06896,1.90628,402.873,36.437,45.069,44.999,0.00,0.09,-272.78,-272.84,-12,512,-939,22.3,22.9,0.1,22.4,23.2,0.4,5.73,1.66,-1.5,27.7
2016-06-21 00:56:00,0.0,1.89095,0.00037,398.876,0.065,0.8116,0.0074,140.001,45.000,31677.96641,1.90645,402.870,36.438,45.069,45.000,0.00,0.09,-272.79,-272.85,-12,511,-939,22.3,23.1,0.2,22.4,23.3,0.4,5.73,2.00,-1.5,27.7
2016-06-21 00:57:00,0.0,1.89099,0.00036,398.903,0.034,0.8077,0.0041,140.002,45.000,31677.00860,1.90640,402.879,36.437,45.070,45.000,0.00,0.09,-272.77,-272.84,-13,512,-939,22.3,23.0,0.1,22.3,23.3,0.3,5.73,1.72,-1.5,27.7
2016-06-21 00:58:00,0.0,1.89152,0.00048,398.861,0.058,0.8101,0.0110,139.998,45.000,31674.79748,1.90701,402.849,36.438,45.070,45.000,0.00,0.09,-272.78,-272.84,-12,512,-939,22.2,23.0,0.1,22.3,23.4,0.4,5.73,1.83,-1.5,27.7
2016-06-21 00:59:00,0.0,1.89092,0.00034,399.022,0.044,0.7792,0.0054,139.999,45.000,31675.43018,1.90579,402.855,36.413,45.069,45.000,0.00,0.09,-272.79,-272.85,-13,511,-939,22.2,22.2,-0.4,22.3,22.7,-0.0,5.73,1.93,-1.5,27.7
2016-06-21 01:00:00,0.0,1.89099,0.00045,399.016,0.065,0.7826,0.0118,140.000,45.000,31675.69028,1.90590,402.865,36.425,45.069,45.000,0.00,0.09,-272.79,-272.84,-13,512,-939,22.2,22.3,-0.3,22.3,22.5,-0.2,5.73,1.67,-1.5,27.7
2016-06-21 01:01:00,0.0,1.89091,0.00036,398.953,0.067,0.7904,0.0089,139.999,45.000,31675.91484,1.90598,402.842,36.437,45.070,45.000,0.00,0.09,-272.78,-272.83,-12,511,-939,22.2,22.5,-0.2,22.3,22.8,0.1,5.73,2.00,-1.5,27.7
2016-06-21 01:02:00,0.0,1.89104,0.00037,398.968,0.067,0.7847,0.0118,140.000,45.000,31677.25903,1.90600,402.826,36.437,45.070,45.000,0.00,0.09,-272.78,-272.85,-13,511,-939,22.2,22.4,-0.3,22.3,22.6,-0.1,5.73,1.72,-1.5,27.7
2016-06-21 01:03:00,0.0,1.89076,0.00090,398.912,0.047,0.8007,0.0086,139.998,45.000,31677.08653,1.90609,402.851,36.437,45.069,45.000,0.00,0.09,-272.79,-272.84,-13,512,-939,22.2,22.9,0.0,22.3,23.0,0.2,5.73,1.84,-1.5,27.7
2016-06-21 01:04:00,0.0,1.89006,0.00053,398.962,0.083,0.7982,0.0109,140.000,45.000,31677.40702,1.90530,402.892,36.417,45.069,44.999,0.00,0.09,-272.77,-272.84,-12,512,-938,22.2,22.8,-0.0,22.3,23.2,0.3,5.73,1.94,-1.5,27.7
2016-06-21 01:05:00,0.0,1.89077,0.00036,399.036,0.023,0.7846,0.0041,140.000,45.000,31675.04969,1.90568,402.894,36.392,45.069,44.999,0.00,0.31,-270.95,-270.99,-13,511,-938,22.2,22.4,-0.3,22.3,22.7,-0.0,5.43,1.71,-7.8,27.6
2016-06-21 01:06:00,0.0,1.89042,0.00035,398.951,0.051,0.7994,0.0072,139.999,45.000,31674.65614,1.90567,402.883,36.379,45.069,45.000,0.00,0.09,-272.79,-272.84,-13,511,-939,22.2,22.9,0.0,22.3,23.0,0.1,5.73,1.99,-1.4,27.7
2016-06-21 01:07:00,0.0,1.89084,0.00062,398.869,0.067,0.8193,0.0108,139.997,45.000,31672.99951,1.90650,402.902,36.378,45.070,45.000,0.00,0.09,-272.77,-272.84,-12,511,-939,22.2,23.4,0.3,22.3,23.6,0.5,5.73,1.74,-1.5,27.7
2016-06-21 01:08:00,0.0,1.89038,0.00059,398.955,0.071,0.8032,0.0086,140.002,45.000,31672.97117,1.90572,402.908,36.375,45.070,45.001,0.00,0.09,-272.78,-272.84,-13,511,-939,22.1,23.0,0.1,22.2,23.3,0.3,5.73,1.81,-1.4,27.6
2016-06-21 01:09:00,0.0,1.89008,0.00044,398.897,0.053,0.8105,0.0082,139.998,45.000,31672.40217,1.90554,402.887,36.375,45.070,45.000,0.00,0.09,-272.78,-272.85,-13,512,-938,22.2,23.2,0.2,22.3,23.4,0.4,5.73,1.96,-1.5,27.6
2016-06-21 01:10:00,0.0,1.89088,0.00054,398.957,0.060,0.8002,0.0083,139.999,45.000,31669.47013,1.90616,402.895,36.361,45.070,45.000,0.00,0.09,-272.78,-272.85,-12,511,-938,22.2,22.9,0.0,22.3,23.2,0.2,5.73,1.66,-1.4,27.6
2016-06-21 01:11:00,0.0,1.89033,0.00045,399.040,0.034,0.7795,0.0052,139.998,45.000,31671.46608,1.90521,402.875,36.325,45.069,44.999,0.00,0.09,-272.78,-272.84,-13,511,-938,22.2,22.4,-0.3,22.3,22.7,-0.0,5.73,1.97,-1.4,27.6
2016-06-21 01:12:00,0.0,1.89013,0.00045,398.791,0.076,0.8235,0.0131,139.999,45.000,31671.40347,1.90582,402.844,36.315,45.069,44.999,0.00,0.09,-272.78,-272.85,-13,511,-938,22.2,23.6,0.4,22.2,23.5,0.4,5.73,1.81,-1.4,27.6
2016-06-21 01:13:00,0.0,1.89075,0.00052,398.974,0.078,0.7950,0.0123,139.999,44.999,31668.79641,1.90594,402.885,36.308,45.069,44.999,0.00,0.09,-272.79,-272.84,-11,511,-938,22.2,22.8,-0.1,22.3,23.3,0.3,5.73,1.74,-1.4,27.6
2016-06-21 01:14:00,0.0,1.89121,0.00057,399.041,0.056,0.7851,0.0050,140.001,45.000,31668.44910,1.90613,402.903,36.268,45.069,44.999,0.00,0.09,-272.79,-272.84,-13,511,-938,22.1,22.6,-0.3,22.2,22.8,-0.0,5.73,1.99,-1.4,27.6
2016-06-21 01:15:00,0.0,1.89054,0.00033,399.003,0.090,0.7881,0.0101,140.002,45.000,31668.43192,1.90560,402.880,36.256,45.070,45.001,0.00,0.09,-272.78,-272.83,-13,511,-938,22.1,22.6,-0.3,22.2,22.9,0.0,5.73,1.66,-1.4,27.6
2016-06-21 01:16:00,0.0,1.89073,0.00042,399.020,0.061,0.7915,0.0134,139.997,45.000,31667.28441,1.90583,402.914,36.293,45.071,45.001,0.00,0.09,-272.79,-272.85,-12,511,-938,22.1,22.7,-0.2,22.2,22.8,-0.0,5.73,1.97,-1.4,27.6
2016-06-21 01:17:00,0.0,1.89025,0.00045,398.867,0.163,0.8167,0.0260,140.000,45.000,31667.78244,1.90577,402.886,36.294,45.071,45.001,0.00,0.09,-272.78,-272.84,-13,511,-938,22.1,23.6,0.3,22.2,23.4,0.3,5.73,1.79,-1.4,27.6
2016-06-21 01:18:00,0.0,1.89021,0.00041,398.858,0.142,0.8281,0.0202,139.999,45.000,31667.23205,1.90608,402.938,36.307,45.071,45.001,0.00,0.09,-272.77,-272.83,-13,511,-938,22.1,23.7,0.4,22.2,24.1,0.7,5.73,1.75,-1.4,27.6
2016-06-21 01:19:00,0.0,1.88996,0.00043,398.979,0.030,0.8008,0.0064,139.998,45.000,31667.98079,1.90522,402.919,36.304,45.070,45.000,0.00,0.09,-272.78,-272.84,-12,511,-938,22.1,23.0,-0.0,22.2,23.3,0.3,5.73,1.99,-1.4,27.6
2016-06-21 01:20:00,0.0,1.89029,0.00051,398.908,0.105,0.8143,0.0127,139.997,45.000,31665.52988,1.90583,402.916,36.295,45.069,44.999,0.00,0.09,-272.78,-272.84,-13,511,-938,22.1,23.5,0.3,22.2,23.5,0.4,5.73,1.66,-1.4,27.6
2016-06-21 01:21:00,0.0,1.89007,0.00039,398.820,0.142,0.8312,0.0208,139.999,45.000,31665.28387,1.90595,402.914,36.279,45.069,44.999,0.00,0.09,-272.78,-272.84,-13,511,-938,22.1,23.9,0.5,22.2,24.2,0.8,5.73,1.94,-1.4,27.6
2016-06-21 01:22:00,0.0,1.88999,0.00048,398.883,0.040,0.8179,0.0069,139.999,45.000,31665.61893,1.90558,402.908,36.305,45.070,45.000,0.00,0.09,-272.78,-272.84,-11,511,-938,22.1,23.5,0.3,22.2,23.7,0.5,5.73,1.81,-1.4,27.6
2016-06-21 01:23:00,0.0,1.89003,0.00042,398.872,0.088,0.8193,0.0155,139.996,45.000,31665.04838,1.90570,402.905,36.309,45.070,45.000,0.00,0.09,-272.79,-272.85,-13,511,-938,22.1,23.6,0.3,22.2,23.8,0.5,5.73,1.76,-1.4,27.6
2016-06-21 01:24:00,0.0,1.89008,0.00042,398.921,0.070,0.8085,0.0156,139.999,45.000,31664.79585,1.90550,402.902,36.309,45.070,45.000,0.00,0.09,-272.78,-272.84,-13,511,-938,22.1,23.3,0.1,22.2,23.7,0.4,5.73,1.99,-1.4,27.6
2016-06-21 01:25:00,0.0,1.89020,0.00046,398.851,0.104,0.8124,0.0183,140.001,45.000,31663.66985,1.90573,402.850,36.308,45.070,45.000,0.00,0.09,-272.77,-272.84,-12,511,-938,22.1,23.3,0.1,22.2,23.6,0.4,5.73,1.66,-1.4,27.6
2016-06-21 01:26:00,0.0,1.89029,0.00030,399.084,0.042,0.7676,0.0053,139.999,45.000,31664.47489,1.90490,402.860,36.308,45.070,45.000,0.00,0.09,-272.79,-272.84,-13,511,-938,22.1,22.1,-0.5,22.2,22.6,-0.2,5.73,1.96,-1.4,27.6
2016-06-21 01:27:00,0.0,1.89069,0.00067,399.048,0.044,0.7787,0.0056,139.998,45.000,31662.64845,1.90556,402.877,36.290,45.069,44.999,0.00,0.09,-272.78,-272.84,-12,511,-938,22.1,22.4,-0.4,22.1,22.6,-0.2,5.73,1.81,-1.4,27.6
2016-06-21 01:28:00,0.0,1.89103,0.00067,398.965,0.077,0.7916,0.0101,140.000,45.000,31664.02970,1.90606,402.859,36.259,45.069,44.999,0.00,0.09,-272.78,-272.83,-12,511,-938,22.1,22.8,-0.1,22.1,22.9,-0.1,5.73,1.75,-1.4,27.6
2016-06-21 01:29:00,0.0,1.89059,0.00082,398.900,0.140,0.7992,0.0235,140.000,45.000,31664.72555,1.90590,402.833,36.257,45.069,45.000,0.00,0.09,-272.79,-272.84,-13,511,-938,22.1,23.0,-0.0,22.1,23.4,0.2,5.73,1.98,-1.4,27.6
2016-06-21 01:30:00,0.0,1.89014,0.00046,398.841,0.083,0.8111,0.0119,139.996,45.000,31664.62441,1.90559,402.831,36.300,45.070,45.000,0.00,0.09,-272.79,-272.85,-12,511,-938,22.1,23.3,0.2,22.2,23.3,0.2,5.73,1.66,-1.4,27.5
2016-06-21 01:31:00,0.0,1.89000,0.00042,399.027,0.101,0.7645,0.0192,140.001,45.000,31666.55187,1.90463,402.789,36.313,45.070,45.000,0.00,0.09,-272.78,-272.83,-12,511,-938,22.1,22.0,-0.6,22.1,22.7,-0.2,5.73,1.97,-1.4,27.5
2016-06-21 01:32:00,0.0,1.88992,0.00032,399.032,0.087,0.7643,0.0144,140.001,45.000,31666.01692,1.90447,402.789,36.305,45.070,45.000,0.00,0.09,-272.77,-272.85,-13,511,-938,22.1,21.9,-0.7,22.2,22.3,-0.4,5.73,1.79,-1.4,27.5
2016-06-21 01:33:00,0.0,1.89029,0.00031,399.081,0.039,0.7519,0.0036,139.998,45.000,31664.07609,1.90459,402.776,36.265,45.069,44.999,0.00,0.09,-272.79,-272.85,-12,511,-938,22.1,21.6,-0.9,22.1,21.9,-0.7,5.73,1.74,-1.4,27.6
2016-06-21 01:34:00,0.0,1.89016,0.00033,399.040,0.061,0.7601,0.0074,139.999,45.000,31662.80471,1.90465,402.776,36.253,45.069,44.999,0.00,0.09,-272.78,-272.84,-12,511,-938,22.1,21.8,-0.7,22.1,22.0,-0.6,5.73,1.99,-1.3,27.6
2016-06-21 01:35:00,0.0,1.89025,0.00054,399.067,0.063,0.7571,0.0115,140.000,45.000,31661.59202,1.90466,402.790,36.254,45.069,44.999,0.00,0.09,-272.77,-272.83,-13,511,-938,22.1,21.8,-0.7,22.2,22.1,-0.5,5.73,1.66,-1.3,27.5
2016-06-21 01:36:00,0.0,1.89035,0.00045,398.954,0.063,0.7701,0.0103,140.000,45.000,31663.17292,1.90502,402.739,36.249,45.069,44.999,0.00,0.09,-272.79,-272.85,-12,511,-938,22.1,22.1,-0.5,22.1,22.3,-0.4,5.73,1.93,-1.3,27.6
2016-06-21 01:37:00,0.0,1.89008,0.00050,399.001,0.068,0.7632,0.0079,139.999,45.000,31660.91220,1.90462,402.752,36.242,45.069,44.999,0.00,0.09,-272.78,-272.84,-12,510,-938,22.1,22.0,-0.6,22.1,22.2,-0.5,5.73,1.85,-1.3,27.6
2016-06-21 01:38:00,0.0,1.89036,0.00056,398.884,0.116,0.7834,0.0168,140.000,45.000,31660.90688,1.90528,402.735,36.235,45.069,45.000,0.00,0.09,-272.78,-272.84,-13,511,-938,22.1,22.4,-0.4,22.2,22.5,-0.2,5.73,1.72,-1.3,27.6
2016-06-21 01:39:00,0.0,1.89068,0.00024,399.035,0.043,0.7555,0.0062,139.998,45.000,31658.90046,1.90507,402.750,36.248,45.070,45.000,0.00,0.09,-272.78,-272.85,-12,511,-938,22.1,21.7,-0.8,22.2,22.3,-0.4,5.73,2.00,-1.3,27.6
2016-06-21 01:40:00,0.0,1.89076,0.00032,399.061,0.041,0.7519,0.0041,139.997,45.000,31658.53878,1.90508,402.755,36.249,45.070,45.001,0.00,0.09,-272.79,-272.84,-12,511,-938,22.1,21.6,-0.9,22.1,21.9,-0.6,5.73,1.66,-1.3,27.6
2016-06-21 01:41:00,0.0,1.89082,0.00039,399.016,0.055,0.7573,0.0090,139.996,45.000,31658.69478,1.90524,402.739,36.250,45.070,45.001,0.00,0.09,-272.78,-272.83,-13,511,-938,22.1,21.7,-0.8,22.2,22.0,-0.5,5.73,1.93,-1.3,27.6
2016-06-21 01:42:00,0.0,1.89085,0.00036,398.974,0.055,0.7714,0.0114,139.999,45.000,31658.01743,1.90557,402.766,36.250,45.070,45.000,0.00,0.09,-272.78,-272.83,-12,511,-938,22.1,22.1,-0.5,22.2,22.3,-0.4,5.73,1.85,-1.3,27.6
2016-06-21 01:43:00,0.0,1.89045,0.00057,398.943,0.097,0.7762,0.0195,139.997,45.000,31658.21198,1.90528,402.757,36.244,45.069,44.999,0.00,0.09,-272.79,-272.84,-12,510,-938,22.1,22.3,-0.4,22.2,22.4,-0.3,5.73,1.70,-1.3,27.6
2016-06-21 01:44:00,0.0,1.89041,0.00038,398.976,0.072,0.7690,0.0118,139.998,45.000,31657.14160,1.90505,402.759,36.221,45.069,44.999,0.00,0.09,-272.79,-272.83,-13,511,-937,22.1,22.1,-0.5,22.1,22.6,-0.2,5.73,2.00,-1.3,27.5
2016-06-21 01:45:00,0.0,1.89054,0.00044,398.996,0.038,0.7665,0.0052,139.999,45.000,31655.84385,1.90513,402.764,36.197,45.069,44.999,0.00,0.09,-272.77,-272.84,-12,511,-937,22.1,22.0,-0.6,22.1,22.3,-0.4,5.73,1.71,-1.3,27.5